NSZ5708 GCLP-ENGM

Flight info

Callsign NSZ5708
Flight time N/A
Altitude 34000
Route VASTO DCT BAROK DCT SOTEX DCT BARDI N873 RONSI/N0448F360 N873 DELOG DCT YURZI UL14 TEPRA UN867 AVANT/N0440F350 DCT DIGSU/N0445F370 N866 BANEM M604 GIVPO DCT LARGA DCT VAXIT DCT PIPEX DCT ULMUG DCT RIPAM
Aircraft B738/M-SDE2E3FGHIRWXY/LB1

Departure

Time N/A
Airport Gran Canaria Airport (GCLP)

Arrival

Time 2026-05-06 19:06
Airport Oslo-Gardermoen International Airport (ENGM)
Time Latitude Longitude Altitude Speed Heading
2026-05-06 17:41 52.35536 1.54079 34649 ft 474 kts 45°
2026-05-06 17:41 52.37845 1.57942 34889 ft 472 kts 44°
2026-05-06 17:41 52.40168 1.61745 35054 ft 473 kts 44°
2026-05-06 17:42 52.42497 1.65572 35195 ft 474 kts 44°
2026-05-06 17:42 52.44811 1.69422 35375 ft 474 kts 44°
2026-05-06 17:42 52.47103 1.73281 35579 ft 474 kts 45°
2026-05-06 17:42 52.49374 1.77136 35755 ft 474 kts 45°
2026-05-06 17:43 52.51651 1.81015 35913 ft 474 kts 45°
2026-05-06 17:43 52.53937 1.84910 35980 ft 476 kts 45°
2026-05-06 17:43 52.58523 1.92733 35988 ft 478 kts 45°
2026-05-06 17:44 52.63132 2.00598 35981 ft 477 kts 45°
2026-05-06 17:44 52.67727 2.08462 35984 ft 476 kts 45°
2026-05-06 17:45 52.72309 2.16330 35986 ft 476 kts 45°
2026-05-06 17:45 52.76890 2.24225 35989 ft 476 kts 45°
2026-05-06 17:46 52.81464 2.32135 35987 ft 476 kts 45°
2026-05-06 17:46 52.86004 2.40010 35989 ft 476 kts 45°
2026-05-06 17:47 52.90573 2.47963 35987 ft 476 kts 45°
2026-05-06 17:47 52.95133 2.55924 35984 ft 477 kts 45°
2026-05-06 17:48 53.00060 2.63185 35994 ft 474 kts 31°
2026-05-06 17:48 53.05895 2.68226 35989 ft 473 kts 24°
2026-05-06 17:49 53.11832 2.72973 35989 ft 474 kts 24°
2026-05-06 17:49 53.17753 2.77840 35988 ft 475 kts 25°
2026-05-06 17:50 53.23663 2.82771 35995 ft 475 kts 25°
2026-05-06 17:50 53.29588 2.87714 35987 ft 476 kts 24°
2026-05-06 17:51 53.35529 2.92415 35987 ft 476 kts 22°
2026-05-06 17:51 53.41542 2.97068 35986 ft 476 kts 22°
2026-05-06 17:52 53.47556 3.01759 35989 ft 476 kts 23°
2026-05-06 17:52 53.53553 3.06482 35991 ft 476 kts 23°
2026-05-06 17:53 53.59547 3.11228 35991 ft 476 kts 23°
2026-05-06 17:53 53.65536 3.15985 35997 ft 476 kts 23°
2026-05-06 17:54 53.71525 3.20757 36018 ft 476 kts 23°
2026-05-06 17:54 53.76493 3.24726 36010 ft 476 kts 23°
2026-05-06 17:55 53.82489 3.29529 36011 ft 476 kts 23°
2026-05-06 17:55 53.88479 3.34344 36012 ft 477 kts 23°
2026-05-06 17:56 53.94468 3.39173 36009 ft 477 kts 23°
2026-05-06 17:56 54.00464 3.44023 36013 ft 477 kts 23°
2026-05-06 17:57 54.06462 3.48890 36015 ft 478 kts 23°
2026-05-06 17:57 54.12464 3.53777 36017 ft 478 kts 23°
2026-05-06 17:58 54.18467 3.58680 36017 ft 478 kts 23°
2026-05-06 17:58 54.24462 3.63592 36012 ft 479 kts 23°
2026-05-06 17:59 54.30480 3.68540 36015 ft 480 kts 23°
2026-05-06 17:59 54.36496 3.73501 36011 ft 480 kts 24°
2026-05-06 18:00 54.42517 3.78483 36028 ft 480 kts 24°
2026-05-06 18:00 54.48491 3.83443 36020 ft 481 kts 23°
2026-05-06 18:01 54.54509 3.88455 36028 ft 481 kts 23°
2026-05-06 18:01 54.60543 3.93498 36018 ft 482 kts 24°
2026-05-06 18:02 54.66567 3.98549 36019 ft 482 kts 24°
2026-05-06 18:02 54.72596 4.03621 36033 ft 482 kts 23°
2026-05-06 18:03 54.78634 4.08717 36033 ft 483 kts 24°
2026-05-06 18:03 54.84674 4.13831 36032 ft 483 kts 23°
2026-05-06 18:04 54.90940 4.17828 36035 ft 478 kts 13°
2026-05-06 18:04 54.97368 4.20815 36044 ft 479 kts 11°
2026-05-06 18:05 55.03817 4.23807 36037 ft 479 kts 12°
2026-05-06 18:05 55.10235 4.26927 36035 ft 481 kts 15°
2026-05-06 18:06 55.13330 4.29173 36034 ft 484 kts 26°
2026-05-06 18:06 55.16204 4.32253 36052 ft 486 kts 31°
2026-05-06 18:06 55.21839 4.38804 36050 ft 487 kts 31°
2026-05-06 18:07 55.27485 4.45382 36029 ft 487 kts 31°
2026-05-06 18:07 55.33149 4.51906 36037 ft 487 kts 31°
2026-05-06 18:08 55.38830 4.58422 36038 ft 488 kts 31°
2026-05-06 18:08 55.44513 4.64956 36055 ft 487 kts 31°
2026-05-06 18:09 55.50068 4.71371 36039 ft 476 kts 31°
2026-05-06 18:09 55.55666 4.77854 36091 ft 482 kts 31°
2026-05-06 18:10 55.61313 4.84416 36208 ft 489 kts 31°
2026-05-06 18:10 55.64128 4.87698 36368 ft 489 kts 31°
2026-05-06 18:10 55.66953 4.91000 36735 ft 484 kts 31°
2026-05-06 18:11 55.69746 4.94271 37072 ft 481 kts 31°
2026-05-06 18:11 55.72550 4.97558 37018 ft 485 kts 31°
2026-05-06 18:11 55.78200 5.04194 37034 ft 489 kts 31°
2026-05-06 18:12 55.83886 5.10899 37044 ft 491 kts 31°
2026-05-06 18:12 55.89582 5.17641 37040 ft 492 kts 31°
2026-05-06 18:13 55.95282 5.24412 37031 ft 492 kts 31°
2026-05-06 18:13 56.00962 5.31185 37034 ft 491 kts 31°
2026-05-06 18:14 56.06621 5.37954 37034 ft 490 kts 31°
2026-05-06 18:14 56.12282 5.44752 37034 ft 490 kts 31°
2026-05-06 18:15 56.17929 5.51557 37042 ft 489 kts 31°
2026-05-06 18:15 56.23571 5.58379 37043 ft 489 kts 31°
2026-05-06 18:16 56.29200 5.65211 37040 ft 488 kts 31°
2026-05-06 18:16 56.34792 5.72023 37037 ft 488 kts 31°
2026-05-06 18:17 56.40412 5.78892 37021 ft 488 kts 32°
2026-05-06 18:17 56.46027 5.85782 37053 ft 488 kts 31°
2026-05-06 18:18 56.51646 5.92701 37040 ft 489 kts 32°
2026-05-06 18:18 56.57268 5.99649 37035 ft 489 kts 32°
2026-05-06 18:19 56.62860 6.06586 37034 ft 490 kts 32°
2026-05-06 18:19 56.68515 6.13627 37032 ft 490 kts 32°
2026-05-06 18:20 56.74104 6.20610 37037 ft 491 kts 32°
2026-05-06 18:20 56.79725 6.27661 37032 ft 491 kts 32°
2026-05-06 18:21 56.85354 6.34747 37023 ft 491 kts 32°
2026-05-06 18:21 56.90968 6.41842 37023 ft 491 kts 32°
2026-05-06 18:22 56.96587 6.48968 37017 ft 491 kts 32°
2026-05-06 18:22 57.02203 6.56118 37027 ft 491 kts 32°
2026-05-06 18:23 57.07820 6.63295 37018 ft 492 kts 32°
2026-05-06 18:23 57.13434 6.70496 37012 ft 492 kts 32°
2026-05-06 18:24 57.19058 6.77736 37013 ft 493 kts 32°
2026-05-06 18:24 57.24676 6.84997 37018 ft 493 kts 32°
2026-05-06 18:25 57.30299 6.92292 37007 ft 494 kts 32°
2026-05-06 18:25 57.35914 6.99605 37008 ft 494 kts 32°
2026-05-06 18:26 57.41519 7.06931 37006 ft 494 kts 32°
2026-05-06 18:26 57.47135 7.14301 37021 ft 494 kts 32°
2026-05-06 18:27 57.52743 7.21689 37002 ft 494 kts 32°
2026-05-06 18:27 57.58311 7.29052 36989 ft 494 kts 32°
2026-05-06 18:28 57.63908 7.36482 36989 ft 494 kts 32°
2026-05-06 18:28 57.69515 7.43953 36986 ft 495 kts 33°
2026-05-06 18:29 57.75127 7.51460 36983 ft 496 kts 32°
2026-05-06 18:29 57.80740 7.58998 36979 ft 497 kts 32°
2026-05-06 18:30 57.86361 7.66577 36972 ft 497 kts 33°
2026-05-06 18:30 57.91974 7.74176 36972 ft 497 kts 33°
2026-05-06 18:31 57.97579 7.81792 36998 ft 497 kts 33°
2026-05-06 18:31 58.03194 7.89453 36976 ft 498 kts 33°
2026-05-06 18:32 58.08802 7.97135 36966 ft 498 kts 33°
2026-05-06 18:32 58.14362 8.04782 36953 ft 497 kts 33°
2026-05-06 18:33 58.19963 8.12487 36963 ft 497 kts 31°
2026-05-06 18:33 58.25879 8.19187 36961 ft 495 kts 25°
2026-05-06 18:34 58.31267 8.24754 36976 ft 495 kts 25°
2026-05-06 18:35 58.35415 8.29071 36977 ft 495 kts 25°
2026-05-06 18:36 58.41450 8.35494 36970 ft 496 kts 26°
2026-05-06 18:36 58.47454 8.41997 36924 ft 497 kts 26°
2026-05-06 18:37 58.50470 8.45282 36483 ft 500 kts 26°
2026-05-06 18:37 58.52466 8.47462 36227 ft 496 kts 26°
2026-05-06 18:37 58.56442 8.51814 35682 ft 489 kts 26°
2026-05-06 18:37 58.59379 8.55033 35252 ft 485 kts 26°
2026-05-06 18:38 58.62300 8.58239 34831 ft 482 kts 26°
2026-05-06 18:38 58.65202 8.61428 34402 ft 479 kts 25°
2026-05-06 18:38 58.68087 8.64602 33976 ft 477 kts 25°
2026-05-06 18:38 58.70956 8.67764 33475 ft 474 kts 25°
2026-05-06 18:39 58.73801 8.70907 33085 ft 470 kts 25°
2026-05-06 18:39 58.76603 8.74009 32663 ft 466 kts 25°
2026-05-06 18:39 58.79404 8.77116 32256 ft 463 kts 25°
2026-05-06 18:40 58.84939 8.83271 31448 ft 456 kts 25°
2026-05-06 18:40 58.87640 8.86284 31058 ft 452 kts 25°
2026-05-06 18:40 58.90390 8.89356 30666 ft 449 kts 25°
2026-05-06 18:40 58.93088 8.92377 30248 ft 446 kts 25°
2026-05-06 18:41 58.94862 8.94367 30010 ft 444 kts 25°
2026-05-06 18:41 58.97517 8.97348 29578 ft 441 kts 25°
2026-05-06 18:41 59.01014 9.01281 29083 ft 435 kts 25°
2026-05-06 18:41 59.03621 9.04220 28652 ft 432 kts 25°
2026-05-06 18:42 59.06207 9.07140 28221 ft 428 kts 25°
2026-05-06 18:42 59.08768 9.10047 27843 ft 424 kts 25°
2026-05-06 18:42 59.10489 9.11996 27579 ft 422 kts 25°
2026-05-06 18:42 59.13017 9.14860 27194 ft 419 kts 25°
2026-05-06 18:43 59.15527 9.17710 26817 ft 416 kts 25°
2026-05-06 18:43 59.18017 9.20543 26436 ft 413 kts 25°
2026-05-06 18:43 59.20484 9.23358 26068 ft 410 kts 25°
2026-05-06 18:43 59.22906 9.26122 25693 ft 407 kts 25°
2026-05-06 18:44 59.25379 9.28948 25314 ft 404 kts 25°
2026-05-06 18:44 59.27760 9.31675 24989 ft 402 kts 24°
2026-05-06 18:44 59.30168 9.34439 24583 ft 400 kts 24°
2026-05-06 18:44 59.32563 9.37193 24237 ft 398 kts 24°
2026-05-06 18:45 59.34945 9.39936 23853 ft 396 kts 24°
2026-05-06 18:45 59.37313 9.42669 23499 ft 394 kts 24°
2026-05-06 18:45 59.39672 9.45394 23056 ft 392 kts 24°
2026-05-06 18:45 59.42011 9.48102 22667 ft 389 kts 25°
2026-05-06 18:46 59.44331 9.50793 22309 ft 385 kts 24°
2026-05-06 18:46 59.46629 9.53464 21925 ft 382 kts 24°
2026-05-06 18:46 59.48888 9.56164 21625 ft 379 kts 27°
2026-05-06 18:46 59.51026 9.59141 21349 ft 376 kts 31°
2026-05-06 18:47 59.53068 9.62228 21081 ft 371 kts 32°
2026-05-06 18:47 59.55083 9.65358 20869 ft 367 kts 32°
2026-05-06 18:47 59.57074 9.68458 20586 ft 363 kts 32°
2026-05-06 18:47 59.59057 9.71522 20251 ft 360 kts 31°
2026-05-06 18:48 59.61028 9.74547 19942 ft 358 kts 31°
2026-05-06 18:48 59.62991 9.77544 19606 ft 356 kts 31°
2026-05-06 18:48 59.64946 9.80530 19290 ft 354 kts 31°
2026-05-06 18:48 59.66892 9.83502 18951 ft 353 kts 31°
2026-05-06 18:49 59.68840 9.86444 18590 ft 351 kts 32°
2026-05-06 18:49 59.70770 9.89378 18293 ft 349 kts 32°
2026-05-06 18:49 59.72699 9.92321 17922 ft 349 kts 32°
2026-05-06 18:49 59.74619 9.95254 17566 ft 347 kts 33°
2026-05-06 18:50 59.76528 9.98176 17232 ft 345 kts 33°
2026-05-06 18:50 59.78388 10.01031 16917 ft 344 kts 33°
2026-05-06 18:50 59.80270 10.03936 16612 ft 342 kts 32°
2026-05-06 18:50 59.82151 10.06812 16258 ft 341 kts 32°
2026-05-06 18:51 59.84029 10.09688 15938 ft 339 kts 32°
2026-05-06 18:51 59.85883 10.12544 15614 ft 337 kts 32°
2026-05-06 18:51 59.87737 10.15403 15314 ft 338 kts 32°
2026-05-06 18:51 59.89651 10.18349 15023 ft 359 kts 33°
2026-05-06 18:52 59.91661 10.21444 14668 ft 369 kts 33°
2026-05-06 18:52 59.93687 10.24583 14293 ft 369 kts 33°
2026-05-06 18:52 59.95711 10.27714 13932 ft 367 kts 34°
2026-05-06 18:52 59.97698 10.30813 13575 ft 365 kts 34°
2026-05-06 18:53 59.99697 10.33937 13186 ft 364 kts 34°
2026-05-06 18:53 60.01675 10.37025 12841 ft 358 kts 34°
2026-05-06 18:53 60.03624 10.40068 12490 ft 353 kts 35°
2026-05-06 18:53 60.05539 10.43072 12195 ft 348 kts 36°
2026-05-06 18:54 60.07433 10.46048 11836 ft 345 kts 36°
2026-05-06 18:54 60.09318 10.49004 11502 ft 342 kts 36°
2026-05-06 18:54 60.11183 10.51933 11162 ft 339 kts 37°
2026-05-06 18:54 60.13030 10.54838 10848 ft 336 kts 37°
2026-05-06 18:55 60.14858 10.57719 10535 ft 333 kts 37°
2026-05-06 18:55 60.16666 10.60572 10214 ft 331 kts 37°
2026-05-06 18:55 60.18445 10.63383 10004 ft 319 kts 38°
2026-05-06 18:55 60.20157 10.66093 9863 ft 310 kts 38°
2026-05-06 18:56 60.21844 10.68759 9622 ft 305 kts 38°
2026-05-06 18:56 60.23501 10.71389 9331 ft 302 kts 38°
2026-05-06 18:56 60.25128 10.73977 9052 ft 293 kts 38°
2026-05-06 18:56 60.26703 10.76487 8777 ft 284 kts 37°
2026-05-06 18:57 60.28222 10.78910 8531 ft 274 kts 37°
2026-05-06 18:57 60.29704 10.81276 8297 ft 271 kts 37°
2026-05-06 18:57 60.31180 10.83631 8033 ft 269 kts 37°
2026-05-06 18:57 60.32645 10.85973 7741 ft 268 kts 37°
2026-05-06 18:58 60.34103 10.88306 7480 ft 267 kts 37°
2026-05-06 18:58 60.35553 10.90630 7211 ft 265 kts 37°
2026-05-06 18:58 60.36991 10.92938 6960 ft 263 kts 37°
2026-05-06 18:58 60.38421 10.95234 6697 ft 261 kts 37°
2026-05-06 18:59 60.39829 10.97496 6447 ft 255 kts 37°
2026-05-06 18:59 60.41198 10.99701 6180 ft 248 kts 37°
2026-05-06 18:59 60.42527 11.01845 6120 ft 243 kts 37°
2026-05-06 18:59 60.43850 11.03978 5993 ft 243 kts 37°
2026-05-06 19:00 60.44987 11.06466 5861 ft 243 kts 64°
2026-05-06 19:00 60.45305 11.09743 5697 ft 245 kts 97°
2026-05-06 19:00 60.44727 11.12955 5490 ft 245 kts 124°
2026-05-06 19:00 60.43673 11.15673 5238 ft 245 kts 132°
2026-05-06 19:01 60.42551 11.18256 4967 ft 244 kts 132°
2026-05-06 19:01 60.41439 11.20826 4724 ft 241 kts 132°
2026-05-06 19:01 60.40233 11.23135 4420 ft 239 kts 154°
2026-05-06 19:01 60.38659 11.23589 4218 ft 228 kts 196°
2026-05-06 19:02 60.37167 11.22517 4083 ft 230 kts 201°
2026-05-06 19:02 60.35668 11.21428 3921 ft 227 kts 202°
2026-05-06 19:02 60.34186 11.20404 3651 ft 223 kts 199°
2026-05-06 19:02 60.32714 11.19524 3337 ft 217 kts 197°
2026-05-06 19:03 60.31287 11.18703 3043 ft 210 kts 197°
2026-05-06 19:03 60.29911 11.17911 2765 ft 202 kts 197°
2026-05-06 19:03 60.28589 11.17147 2495 ft 193 kts 198°
2026-05-06 19:03 60.27346 11.16429 2228 ft 180 kts 198°
2026-05-06 19:04 60.26179 11.15754 1999 ft 167 kts 198°
2026-05-06 19:04 60.25109 11.15146 1728 ft 156 kts 197°
2026-05-06 19:04 60.24105 11.14593 1462 ft 151 kts 196°
2026-05-06 19:04 60.23111 11.13976 1248 ft 150 kts 200°
2026-05-06 19:05 60.22098 11.13389 1097 ft 152 kts 197°
2026-05-06 19:05 60.21082 11.12800 930 ft 152 kts 197°
2026-05-06 19:05 60.20069 11.12218 734 ft 152 kts 197°
2026-05-06 19:05 60.19123 11.11671 683 ft 118 kts 195°
2026-05-06 19:06 60.18570 11.11342 679 ft 38 kts 207°
2026-05-06 19:06 60.18438 11.11073 681 ft 22 kts 268°
2026-05-06 19:06 60.18448 11.10965 679 ft 3 kts 287°
2026-05-06 19:06 60.18457 11.10906 679 ft 8 kts 286°
2026-05-06 19:07 60.18496 11.10775 680 ft 11 kts 348°
2026-05-06 19:07 60.18582 11.10799 681 ft 17 kts 14°
2026-05-06 19:07 60.18714 11.10875 680 ft 21 kts 15°
2026-05-06 19:07 60.18850 11.10952 682 ft 20 kts 16°
2026-05-06 19:08 60.18984 11.11029 682 ft 21 kts 16°
2026-05-06 19:08 60.19133 11.11116 683 ft 23 kts 16°
2026-05-06 19:08 60.19285 11.11204 684 ft 22 kts 15°
2026-05-06 19:08 60.19405 11.11243 681 ft 16 kts 332°
2026-05-06 19:09 60.19447 11.11037 682 ft 18 kts 286°
2026-05-06 19:09 60.19481 11.10797 680 ft 18 kts 285°
2026-05-06 19:09 60.19512 11.10584 680 ft 12 kts 286°
2026-05-06 19:09 60.19468 11.10493 683 ft 10 kts 195°
2026-05-06 19:10 60.19421 11.10466 684 ft 1 kts 196°
2026-05-06 19:10 60.19416 11.10464 684 ft 0 kts 196°